Simultaneous Nadir Overpasses (SNOs) Predictions

Prediction of SNOs between GOES-16 and NOAA-19 Satellite Orbit:

Table of predicted SNOs for the next 14.0 days since TLE Epoch: 3/7/2025
Index Date Time (GOES-16) GOES-16 Lat,Lon NOAA-19 Lat,Lon Distance(km) Time Diff (sec)
1 03/08/2025 02:37:35 -0.04, -75.23 0.10, -74.56 75.82 80
2 03/09/2025 02:25:02 -0.04, -75.24 0.82, -71.51 424.97 80
3 03/10/2025 14:56:23 0.04, -75.28 0.90, -79.05 429.16 80
4 03/11/2025 14:43:50 0.04, -75.30 0.18, -76.00 79.21 80
5 03/12/2025 14:33:55 0.04, -75.32 -0.49, -72.94 271.12 80
6 03/15/2025 02:52:41 -0.05, -75.35 -0.50, -77.42 236.39 80
7 03/16/2025 02:37:27 -0.04, -75.37 0.17, -74.37 114.36 80
8 03/17/2025 02:24:53 -0.04, -75.40 0.90, -71.32 465.17 80
9 03/18/2025 14:56:13 0.04, -75.46 0.81, -78.85 386.98 80
10 03/19/2025 14:43:39 0.04, -75.49 0.13, -75.80 35.83 80
11 03/20/2025 14:33:45 0.04, -75.51 -0.62, -72.75 315.44 80
